"Time","Temp","Dewpoint","Humidity","Pressure","Direction","Speed","Gust","Precip","PrecipRate"
"00:04:58","43","42.2","97","29.88","333","0.8","3.5","0.00","0.00"
"00:09:56","43","42.2","97","29.88","340","1","4","0.00","0.00"
"00:14:59","42.9","42.1","97","29.88","344","0.3","1.2","0.00","0.00"
"00:19:58","42.9","42.2","97.5","29.87","344","0.2","2","0.00","0.00"
"00:24:56","42.8","42.3","98","29.87","344","0.3","2.3","0.00","0.00"
"00:29:57","42.9","42.4","98","29.87","344","0.1","1.2","0.00","0.00"
"00:34:58","42.9","42.4","98","29.87","344","0.6","2.3","0.00","0.00"
"00:39:57","42.9","42.4","98","29.87","344","0.4","2.3","0.00","0.00"
"00:44:56","42.9","42.4","98","29.88","344","0.6","2.3","0.00","0.00"
"00:49:57","42.9","42.4","98","29.88","344","0.7","2.3","0.00","0.00"
"00:54:56","42.9","42.4","98","29.88","344","0","0","0.00","0.00"
"00:59:59","42.9","42.4","98","29.88","344","0","0","0.00","0.00"
"01:04:56","42.9","42.4","98","29.88","344","0","0","0.00","0.00"
"01:09:59","42.8","42.3","98","29.88","344","0","0","0.00","0.00"
"01:14:59","42.8","42.3","98","29.88","344","0","0","0.00","0.00"
"01:19:58","42.8","42.3","98","29.86","344","0","0","0.00","0.00"
"01:24:58","42.8","42.3","98","29.86","344","0","0","0.00","0.00"
"01:29:56","42.7","42.2","98","29.86","344","0","0","0.00","0.00"
"01:34:55","42.7","42.2","98","29.85","344","0","0","0.00","0.00"
"01:39:59","42.7","42.2","98","29.85","344","0","0","0.00","0.00"
"01:44:59","42.7","42.2","98","29.85","344","0","0","0.00","0.00"
"01:49:56","42.7","42.1","97.7","29.85","344","0","0","0.00","0.00"
"01:54:58","42.7","42.2","98","29.85","344","0","0","0.00","0.00"
"01:59:57","42.7","42.2","98","29.85","344","0","0","0.00","0.00"
"02:04:58","42.7","42.2","98","29.84","344","0","0","0.00","0.00"
"02:09:58","42.7","42.2","98","29.84","344","0","0","0.00","0.00"
"02:14:58","42.7","42.2","98","29.84","344","0","0","0.00","0.00"
"02:19:56","42.7","42.2","98","29.82","344","0","0","0.00","0.00"
"02:24:59","42.7","42.2","98","29.82","344","0","0","0.00","0.00"
"02:29:58","42.7","42.2","98","29.82","344","0","0","0.00","0.00"
"02:34:56","42.7","42.2","98","29.80","344","0","0","0.00","0.00"
"02:39:58","42.7","42.2","98","29.80","344","0","0","0.00","0.00"
"02:44:58","42.7","42.2","98","29.80","344","0.2","2.3","0.00","0.00"
"02:49:56","42.7","42.2","98","29.79","344","0","0","0.00","0.00"
"02:54:55","42.6","42.1","98","29.79","344","0","0","0.00","0.00"
"02:59:59","42.6","42.1","98","29.79","344","0","0","0.00","0.00"
"03:04:56","42.5","42","98","29.79","344","0","0","0.00","0.00"
"03:09:59","42.5","42","98","29.79","344","0","0","0.00","0.00"
"03:14:58","42.5","42","98","29.79","344","0","0","0.01","0.01"
"03:19:59","42.5","42","98","29.79","344","0","0","0.01","0.01"
"03:24:54","42.5","42","98","29.79","344","1","3.5","0.01","0.01"
"03:29:56","42.5","42","98","29.79","344","0.8","3.5","0.01","0.01"
"03:34:59","42.5","42","98","29.79","344","0.5","2.3","0.01","0.01"
"03:39:58","42.5","42","98","29.79","344","0","2.3","0.01","0.01"
"03:44:56","42.5","42","98","29.79","344","0","1.2","0.01","0.01"
"03:49:58","42.5","42","98","29.79","344","0","0","0.01","0.01"
"03:54:57","42.5","42","98","29.79","344","0","0","0.01","0.01"
"03:57:59","42.5","42","98","29.79","344","0","0","0.01","0.01"
"04:04:56","42.5","42","98","29.78","344","0.4","2.3","0.02","0.02"
"04:09:59","42.5","42","98","29.78","344","0","0","0.02","0.02"
"04:14:57","42.5","42","98","29.78","344","0","0","0.02","0.02"
"04:19:58","42.5","42","98","29.78","344","0","0","0.03","0.01"
"04:24:58","42.5","42","98","29.78","344","0","0","0.03","0.02"
"04:29:55","42.5","42","98","29.78","344","0","0","0.04","0.03"
"04:34:57","42.6","42.1","98","29.78","344","0","0","0.04","0.03"
"04:39:56","42.6","42.1","98","29.78","344","0","0","0.04","0.03"
"04:44:58","42.6","42.1","98","29.78","344","0","0","0.04","0.03"
"04:54:58","42.6","42.1","98","29.78","344","0","0","0.06","0.05"
"04:59:59","42.6","42.1","98","29.79","344","0","0","0.06","0.05"
"05:04:56","42.6","42.1","98","29.79","344","0","0","0.06","0.05"
"05:09:59","42.6","42.1","98","29.79","344","0","0","0.06","0.04"
"05:14:57","42.6","42.1","98","29.79","344","0","0","0.07","0.05"
"05:18:35","42.6","42.1","98","29.77","344","0","0","0.07","0.05"
"05:24:56","42.6","42.1","98","29.77","344","0","0","0.08","0.05"
"05:29:57","42.7","42.2","98","29.77","344","0","0","0.08","0.05"
"05:34:59","42.7","42.2","98","29.77","344","0","0","0.08","0.04"
"05:39:57","42.7","42.2","98","29.77","344","0","0","0.09","0.05"
"05:44:58","42.7","42.2","98","29.77","344","0","0","0.09","0.05"
"05:49:57","42.7","42.2","98","29.77","344","0","0","0.10","0.05"
"05:54:59","42.7","42.2","98","29.77","344","0","0","0.10","0.05"
"05:59:57","42.7","42.2","98","29.77","344","0","0","0.10","0.04"
"06:04:59","42.8","42.3","98","29.77","344","0","0","0.11","0.05"
"06:09:59","42.8","42.3","98","29.77","344","0","0","0.11","0.05"
"06:14:56","42.8","42.3","98","29.77","344","0","0","0.12","0.05"
"06:19:56","42.9","42.4","98","29.77","344","0","0","0.12","0.05"
"06:24:57","42.9","42.4","98","29.77","344","0.2","2.3","0.12","0.04"
"06:29:56","42.9","42.4","98","29.78","344","1.1","3.5","0.12","0.04"
"06:34:56","42.9","42.4","98","29.78","344","1.5","3.5","0.12","0.04"
"06:39:56","42.9","42.4","98","29.78","344","0.6","3.5","0.12","0.04"
"06:44:56","42.9","42.4","98","29.78","344","0.7","2.3","0.12","0.03"
"06:49:59","42.9","42.4","98","29.77","344","0.3","2.3","0.12","0.03"
"06:54:56","43","42.5","98","29.77","344","0","1.2","0.12","0.02"
"06:59:56","43","42.5","98","29.77","344","0","0","0.12","0.02"
"07:04:57","43","42.5","98","29.76","344","0","0","0.12","0.02"
"07:09:56","43","42.5","98","29.76","344","0","0","0.12","0.01"
"07:14:57","43.1","42.6","98","29.77","344","0","0","0.12","0.01"
"07:19:59","43.1","42.6","98","29.77","344","0","0","0.12","0.00"
"07:24:58","43.2","42.7","98","29.77","344","0","0","0.13","0.01"
"07:29:57","43.2","42.7","98","29.77","344","0.4","2.3","0.13","0.01"
"07:34:56","43.3","42.8","98","29.76","344","0.2","1.2","0.13","0.01"
"07:39:59","43.4","42.9","98","29.76","344","0.5","2.3","0.14","0.02"
"07:44:57","43.5","43","98","29.76","344","0.1","2","0.14","0.02"
"07:49:56","43.6","43.1","98","29.76","344","0.8","2.3","0.15","0.03"
"07:59:56","43.8","43.3","98","29.76","123","2.2","4","0.16","0.04"
"08:04:57","43.9","43.4","98","29.74","127","1.5","3.5","0.16","0.04"
"08:09:59","44","43.5","98","29.74","146","1.2","3.5","0.16","0.04"
"08:14:57","44.2","43.7","98","29.74","152","1.6","3.5","0.16","0.04"
"08:19:58","44.3","43.8","98","29.73","150","1.5","3.5","0.16","0.04"
"08:24:56","44.5","44","98","29.73","133","1.7","3.5","0.16","0.04"
"08:29:57","44.6","44.1","98","29.73","136","1.5","3.5","0.16","0.03"
"08:34:59","44.8","44.3","98","29.73","195","2","3.5","0.16","0.03"
"08:39:57","44.9","44.4","98","29.73","227","0.9","3.5","0.16","0.03"
"08:49:56","45.1","44.6","98","29.73","227","1.3","3.5","0.16","0.02"
"08:54:58","45.3","44.8","98","29.73","227","1.6","3.5","0.16","0.01"
"08:59:55","45.4","44.9","98","29.74","227","0.4","2.3","0.16","0.01"
"09:04:56","45.6","45.1","98","29.74","228","1.3","3.5","0.16","0.00"
"09:09:59","45.7","45.2","98","29.74","229","1.5","3.5","0.16","0.00"
"09:19:59","46","45.6","98.3","29.76","229","1.3","4","0.16","0.00"
"09:24:57","46.2","45.8","98.6","29.76","229","1.4","3.5","0.16","0.00"
"09:29:59","46.4","45.9","98","29.76","229","0.3","2.3","0.16","0.00"
"09:34:56","46.5","46.1","98.2","29.74","229","1.2","3.5","0.16","0.00"
"09:39:59","46.7","46.4","99","29.74","205","1.3","3.5","0.16","0.00"
"09:44:57","46.7","46.4","99","29.74","144","0.9","2.3","0.16","0.00"
"09:49:59","46.8","46.3","98","29.74","144","0.1","1.2","0.16","0.00"
"09:54:57","46.9","46.4","98","29.74","144","0.2","2.3","0.16","0.00"
"09:59:59","47","46.5","98","29.74","144","1","2.3","0.16","0.00"
"10:04:56","47.1","46.6","98.2","29.74","144","0.7","2.3","0.16","0.00"
"10:09:59","47.2","46.9","99","29.74","144","0.2","2.3","0.16","0.00"
"10:14:58","47.3","47","98.7","29.78","310","6.9","20","0.16","0.00"
"10:19:59","47.9","47.5","98.5","29.78","304","4.6","12","0.16","0.00"
"10:24:57","48.6","48.3","99","29.78","291","3.9","9.2","0.16","0.00"
"10:29:59","49","48.7","99","29.79","303","3.4","6","0.17","0.00"
"10:34:57","49.4","49","98.8","29.79","279","3.9","12","0.17","0.01"
"10:39:56","49.7","49","97.3","29.79","281","4.2","11.5","0.17","0.01"
"10:44:59","49.9","48.8","95.8","29.79","283","4.8","14","0.17","0.01"
"10:49:58","50","48.7","95.3","29.79","302","3.5","10","0.17","0.01"
"10:54:57","50.1","48.7","95","29.79","319","5.4","10.4","0.17","0.01"
"10:59:56","50.1","48.7","95","29.79","329","5","10.4","0.17","0.01"
"11:04:58","50.1","48.7","94.8","29.79","324","5","11.5","0.17","0.01"
"11:09:55","50.1","48.4","94","29.79","328","5.4","9.2","0.17","0.01"
"11:14:57","50.1","48.4","94","29.80","326","6.6","13","0.17","0.01"
"11:19:56","50.1","48.4","94","29.80","331","6.8","14","0.17","0.01"
"11:24:59","49.9","48.2","94","29.80","336","5.6","14","0.17","0.01"
"11:29:58","49.9","48.2","94","29.81","341","5.2","13.8","0.17","0.01"
"11:34:58","49.7","48","93.6","29.81","325","9.2","18.4","0.17","0.00"
"11:39:58","49.4","46.3","89.2","29.81","327","13.4","26","0.18","0.01"
"11:44:57","49","44.6","84.5","29.82","331","13.2","24.2","0.18","0.01"
"11:49:57","49","43.5","81.3","29.82","315","15.6","28","0.18","0.01"
"11:54:59","49","42.6","78.7","29.82","325","13.4","27.6","0.18","0.01"
"11:59:58","48.8","42.2","77.8","29.83","313","11.8","19.6","0.18","0.01"
"12:04:58","48.7","41.9","77.2","29.83","322","8.8","18.4","0.18","0.01"
"12:09:59","48.6","41.6","76.5","29.83","327","8.6","24","0.18","0.01"
"12:14:58","48.6","41.4","75.9","29.84","312","8.9","24.2","0.18","0.01"
"12:19:56","48.4","41.3","76.3","29.84","309","7.3","15","0.18","0.01"
"12:24:58","48.3","40.6","74.8","29.84","328","10.7","20","0.18","0.01"
"12:29:56","48.3","40","72.9","29.84","328","12.6","24","0.18","0.01"
"12:34:59","48.4","40.3","73.5","29.82","333","11.1","17.3","0.18","0.01"
"12:39:58","48.3","40.6","74.6","29.82","327","8.2","15","0.18","0.01"
"12:44:56","48.2","40.1","73.4","29.82","318","8.9","20","0.18","0.00"
"12:49:59","48.2","39.6","72","29.82","327","9.3","17.3","0.18","0.00"
"12:54:57","48.1","39.2","71.2","29.82","310","7.9","18.4","0.18","0.00"
"12:59:59","48.1","39.3","71.4","29.84","315","5.9","15","0.18","0.00"
"13:04:56","48.1","38.9","70.2","29.84","316","4.4","11.5","0.18","0.00"
"13:09:57","48.2","39.3","71.2","29.84","302","4.3","10.4","0.18","0.00"
"13:14:56","48.2","38.9","70","29.84","326","6.2","14","0.18","0.00"
"13:19:59","48.1","38.6","69.5","29.82","293","4.4","12","0.18","0.00"
"13:24:57","48.1","38.7","69.6","29.82","319","6.6","20","0.18","0.00"
"13:29:59","48.1","36.8","64.7","29.82","319","10.4","23","0.18","0.00"
"13:34:58","48","36.9","65.2","29.80","306","8.3","15","0.18","0.00"
"13:39:59","47.9","37.1","66","29.80","313","7.3","18.4","0.18","0.00"
"13:44:56","47.9","36.5","64.5","29.81","323","8.3","18.4","0.18","0.00"
"13:49:59","48","36.2","63.7","29.81","341","9.8","19.6","0.18","0.00"
"13:54:58","48.2","36.1","62.8","29.81","341","9.2","19.6","0.18","0.00"
"13:59:57","48.5","36","62","29.81","317","8.2","20","0.18","0.00"
"14:04:58","48.6","35.9","61.5","29.81","318","8.8","19.6","0.18","0.00"
"14:09:59","48.6","35","59.3","29.81","311","11.3","19.6","0.18","0.00"
"14:14:58","48.6","34.7","58.6","29.83","307","9.3","25","0.18","0.00"
"14:19:57","48.9","34.9","58.4","29.83","314","8.7","19.6","0.18","0.00"
"14:24:59","49","33.9","55.8","29.83","310","10.3","22","0.18","0.00"
"14:29:58","48.8","33.3","55","29.85","317","10.3","20.7","0.18","0.00"
"14:34:56","48.6","33.7","56.4","29.85","321","7.9","17.3","0.18","0.00"
"14:39:56","48.5","33.8","56.7","29.85","317","8.5","15","0.18","0.00"
"14:44:59","48.4","34","57.2","29.87","323","8.1","15","0.18","0.00"
"14:49:58","48.4","34.4","58.3","29.87","314","6.5","11.5","0.18","0.00"
"14:54:56","48.3","34","57.6","29.87","308","6.7","14","0.18","0.00"
"14:59:59","48.4","34.1","57.6","29.87","304","5.9","14","0.18","0.00"
"15:04:56","48.4","34.5","58.4","29.87","311","5.6","12","0.18","0.00"
"15:09:57","48.5","34.1","57.3","29.87","296","4.6","11.5","0.18","0.00"
"15:14:58","48.7","34","56.7","29.88","327","5.2","15","0.18","0.00"
"15:19:56","48.8","32.9","54.2","29.88","311","6.8","13","0.18","0.00"
"15:24:59","48.9","33.3","54.7","29.88","312","5.7","15","0.18","0.00"
"15:29:54","48.9","32.8","53.6","29.88","310","6.3","12","0.18","0.00"
"15:34:57","48.8","32.4","53.1","29.88","314","7.4","14","0.18","0.00"
"15:39:57","48.7","32.8","54.3","29.88","311","6.2","14","0.18","0.00"
"15:44:56","48.7","33.1","54.9","29.88","302","5.6","12.7","0.18","0.00"
"15:49:59","49.2","33.1","53.5","29.88","316","6.3","12","0.18","0.00"
"15:54:58","50.1","32.8","51.4","29.88","311","8.3","17.3","0.18","0.00"
"15:59:58","50.2","33.1","51.8","29.88","323","7.3","17.3","0.18","0.00"
"16:04:59","49.7","32.6","51.5","29.88","323","7.1","15","0.18","0.00"
"16:09:57","49.7","33.1","52.7","29.88","291","5.8","15","0.18","0.00"
"16:14:57","50.3","33","51.6","29.88","286","6","15","0.18","0.00"
"16:19:57","50.2","32.3","50","29.88","320","6.6","16.1","0.18","0.00"
"16:24:57","50.2","33.7","52.9","29.88","273","3.7","11","0.18","0.00"
"16:29:57","50.2","32.9","51.2","29.88","309","6.8","16.1","0.18","0.00"
"16:34:57","49.9","31.9","49.7","29.88","306","7.9","16.1","0.18","0.00"
"16:39:57","49.9","31.8","49.7","29.88","278","5.5","15","0.18","0.00"
"16:44:57","50.1","31.8","49.4","29.88","328","6.6","20","0.18","0.00"
"16:49:57","50.2","31.1","47.7","29.88","306","9.2","19.6","0.18","0.00"
"16:54:56","50","29.8","45.6","29.88","321","9.9","24","0.18","0.00"
"16:59:56","49.6","29.1","45","29.90","318","10.4","24.2","0.18","0.00"
"17:04:58","49.4","28.2","43.9","29.90","302","9","24.2","0.18","0.00"
"17:09:55","49.1","28","43.8","29.90","312","9.5","22","0.18","0.00"
"17:14:56","49","27.5","43.1","29.91","309","10.2","19","0.18","0.00"
"17:19:56","48.9","27.2","42.6","29.91","305","6.7","15","0.18","0.00"
"17:24:59","48.8","27.4","43.2","29.91","306","6.7","15","0.18","0.00"
"17:29:59","48.5","28","44.8","29.93","307","5.4","15","0.18","0.00"
"17:34:59","48.2","28.2","45.7","29.93","324","4.5","10.4","0.18","0.00"
"17:39:56","47.9","28.1","46.1","29.93","313","4.9","10.4","0.18","0.00"
"17:44:57","47.5","27.8","46.1","29.96","311","4.8","14","0.18","0.00"
"17:49:57","47.5","26.1","43","29.96","327","9","25.3","0.18","0.00"
"17:54:57","47.4","26","43","29.96","302","8.2","22","0.18","0.00"
"17:59:57","47.3","25.4","42.1","29.97","296","7.7","15","0.18","0.00"
"18:04:58","47.2","25.6","42.5","29.97","318","7.9","15","0.18","0.00"
"18:09:56","47","26.1","43.8","29.97","319","5.5","11.5","0.18","0.00"
"18:14:57","46.7","26.2","44.6","29.98","322","4.7","9.2","0.18","0.00"
"18:19:58","46.5","26.9","46.3","29.98","322","2.4","5.8","0.18","0.00"
"18:24:59","46.1","26.8","46.8","29.98","320","3.5","7","0.18","0.00"
"18:29:59","45.8","26.5","46.4","29.99","320","3.8","7","0.18","0.00"
"18:34:59","45.7","25.5","44.9","29.99","297","4.4","13","0.18","0.00"
"18:39:56","45.6","25.5","45.1","29.99","327","5.5","12","0.18","0.00"
"18:44:57","45.4","25.2","44.8","30.01","327","7","14","0.18","0.00"
"18:49:57","45.2","25.5","45.8","30.01","307","5.4","12","0.18","0.00"
"18:54:57","45","25","45.2","30.01","306","7.3","18","0.18","0.00"
"18:59:57","45","24.3","43.9","30.02","310","6.4","18.4","0.18","0.00"
"19:04:59","44.8","24.2","44.1","30.02","311","5.3","15","0.18","0.00"
"19:09:57","44.7","24.1","44.1","30.02","307","4","10.4","0.18","0.00"
"19:14:58","44.6","24.1","44.2","30.02","315","7","14","0.18","0.00"
"19:19:59","44.5","24.3","44.6","30.02","294","6.5","18.4","0.18","0.00"
"19:24:59","44.3","24","44.5","30.02","302","7.6","15","0.18","0.00"
"19:29:56","44.3","24","44.5","30.02","278","5.9","16.1","0.18","0.00"
"19:34:56","44.2","24.2","45","30.02","324","5.5","16.1","0.18","0.00"
"19:39:58","44","24.1","45.2","30.02","317","6.4","13","0.18","0.00"
"19:44:58","43.9","24.3","45.8","30.03","321","6.4","16.1","0.18","0.00"
"19:49:56","43.7","24.5","46.4","30.03","309","4.8","13.8","0.18","0.00"
"19:54:57","43.4","24.4","46.8","30.03","315","4.2","7","0.18","0.00"
"19:59:58","43.1","24.7","47.9","30.03","315","3","6","0.18","0.00"
"20:04:59","42.7","24.8","48.9","30.02","323","2.4","5","0.18","0.00"
"20:09:57","42.4","24.9","49.7","30.02","327","3.1","6","0.18","0.00"
"20:14:59","42.1","24.6","49.7","30.02","320","2.7","9","0.18","0.00"
"20:19:59","42","24.4","49.4","30.02","327","5.5","14","0.18","0.00"
"20:24:57","42.1","24.6","49.6","30.02","323","4.5","9","0.18","0.00"
"20:29:57","42.1","24.9","50.4","30.03","319","4.1","7","0.18","0.00"
"20:34:57","41.9","24.8","50.4","30.03","317","4.7","11.5","0.18","0.00"
"20:39:59","42","24.9","50.3","30.03","320","4.1","9.2","0.18","0.00"
"20:44:59","42","24.8","50.1","30.04","316","5","12","0.18","0.00"
"20:49:56","42.2","24.6","49.4","30.04","333","5.7","11.5","0.18","0.00"
"20:54:56","42.3","25","50","30.04","290","3.4","6.9","0.18","0.00"
"20:59:57","42.1","25","50.5","30.05","313","2.7","5","0.18","0.00"
"21:04:59","42","24.7","50","30.05","310","3.3","8.1","0.18","0.00"
"21:09:57","41.9","25","50.8","30.05","307","3.9","7","0.18","0.00"
"21:14:58","41.8","24.8","50.8","30.05","325","6.7","17.3","0.18","0.00"
"21:19:59","41.6","25","51.3","30.05","316","4","10.4","0.18","0.00"
"21:24:59","41.4","25.4","52.9","30.05","323","4.5","12","0.18","0.00"
"21:29:56","41.2","25.3","52.8","30.07","331","7.6","15","0.18","0.00"
"21:34:56","41.1","25.6","53.8","30.07","307","7.2","16","0.18","0.00"
"21:39:57","41","25.5","53.7","30.07","308","7.6","18.4","0.18","0.00"
"21:44:58","40.8","25.6","54.3","30.07","309","8.2","18.4","0.18","0.00"
"21:49:58","40.7","25.7","54.8","30.07","296","7.3","18.4","0.18","0.00"
"21:54:59","40.5","25.3","54.4","30.07","319","8.8","18.4","0.18","0.00"
"21:59:56","40.5","25.5","54.9","30.07","310","5.4","12.7","0.18","0.00"
"22:04:57","40.2","25.5","55.5","30.07","311","6.9","19.6","0.18","0.00"
"22:09:59","40.1","25.6","55.8","30.07","316","5.7","13","0.18","0.00"
"22:14:56","40","25.5","55.9","30.07","329","7","14","0.18","0.00"
"22:19:58","39.9","25.6","56.2","30.07","327","6.3","14","0.18","0.00"
"22:24:58","39.7","25.6","56.7","30.07","311","6.3","17.3","0.18","0.00"
"22:29:59","39.5","25.2","56.4","30.08","323","10.1","22","0.18","0.00"
"22:34:56","39.4","24.9","55.7","30.08","320","9.4","20.7","0.18","0.00"
"22:39:57","39.2","25","56.5","30.08","319","6.4","17","0.18","0.00"
"22:44:59","39.1","24.7","55.9","30.10","339","6.8","17.3","0.18","0.00"
"22:49:59","39.1","24.7","56.2","30.10","337","5.3","19.6","0.18","0.00"
"22:54:56","39","24.4","55.5","30.10","326","9","17","0.18","0.00"
"22:59:57","38.9","24.1","55","30.10","322","7.2","19","0.18","0.00"
"23:04:58","38.8","23.9","54.8","30.10","328","8.6","21","0.18","0.00"
"23:09:56","38.7","23.9","55","30.10","337","6.2","19.6","0.18","0.00"
"23:14:58","38.6","23.8","55.2","30.11","334","4.3","14","0.18","0.00"
"23:19:59","38.4","23.5","54.7","30.11","325","4.5","13","0.18","0.00"
"23:24:56","38.4","23.3","54.3","30.11","314","5.8","13","0.18","0.00"
"23:29:57","38.4","23.2","54","30.12","302","4.3","12","0.18","0.00"
"23:34:58","38.3","23","53.9","30.12","314","2.6","10.4","0.18","0.00"
"23:39:56","38.1","22.5","53.1","30.12","340","6.7","20","0.18","0.00"
"23:44:58","38","22.4","53","30.12","329","6","12.7","0.18","0.00"
"23:49:58","37.9","21.7","51.8","30.12","332","7.8","21","0.18","0.00"
"23:54:55","37.8","21.9","52.5","30.12","323","4.6","10.4","0.18","0.00"
"23:59:56","37.6","21.8","52.6","30.12","348","3.8","11","0.18","0.00"
